Time,TemperatureF,DewpointF,PressureIn,WindDirection,WindDirectionDegrees,WindSpeedMPH,WindSpeedGustMPH,Humidity,HourlyPrecipIn,Conditions,Clouds,dailyrainin,SoftwareType,DateUTC
2013-07-27 00:01:00,72.3,66.5,30.04,East,90,0.0,0.0,82,0.00,,CLR,0.11,VWS V12.08,2013-07-27 04:01:00,
2013-07-27 00:02:00,72.3,66.5,30.04,East,90,0.0,0.0,82,0.00,,CLR,0.11,VWS V12.08,2013-07-27 04:02:00,
2013-07-27 00:03:00,72.3,66.5,30.04,East,90,0.0,0.0,82,0.00,,CLR,0.11,VWS V12.08,2013-07-27 04:03:00,
2013-07-27 00:08:00,72.3,66.5,30.04,East,90,0.0,0.0,82,0.00,,CLR,0.11,VWS V12.08,2013-07-27 04:08:00,
2013-07-27 00:13:00,72.1,66.7,30.04,East,90,0.0,0.0,83,0.00,,CLR,0.11,VWS V12.08,2013-07-27 04:13:00,
2013-07-27 00:18:00,72.1,66.7,30.04,East,90,0.0,0.0,83,0.00,,CLR,0.11,VWS V12.08,2013-07-27 04:18:00,
2013-07-27 00:23:00,72.1,66.3,30.04,East,90,0.0,0.0,82,0.00,,CLR,0.11,VWS V12.08,2013-07-27 04:23:00,
2013-07-27 00:28:00,72.1,66.3,30.04,East,90,0.0,0.0,82,0.00,,CLR,0.11,VWS V12.08,2013-07-27 04:28:00,
2013-07-27 00:33:00,72.1,66.3,30.04,East,90,0.0,0.0,82,0.00,,CLR,0.11,VWS V12.08,2013-07-27 04:33:00,
2013-07-27 00:38:00,72.1,66.0,30.04,ESE,112,0.0,0.0,81,0.00,,CLR,0.11,VWS V12.08,2013-07-27 04:38:00,
2013-07-27 00:43:00,72.3,66.2,30.04,ENE,68,0.0,0.0,81,0.00,,CLR,0.11,VWS V12.08,2013-07-27 04:43:00,
2013-07-27 00:48:00,72.1,66.0,30.04,ENE,68,0.0,0.0,81,0.00,,CLR,0.11,VWS V12.08,2013-07-27 04:48:00,
2013-07-27 00:53:00,72.1,66.0,30.04,ENE,68,0.0,0.0,81,0.00,,CLR,0.11,VWS V12.08,2013-07-27 04:53:00,
2013-07-27 00:59:00,72.1,66.0,30.04,ESE,112,0.0,0.0,81,0.00,,CLR,0.11,VWS V12.08,2013-07-27 04:59:00,
2013-07-27 01:04:00,72.1,66.0,30.04,East,90,0.0,0.0,81,0.00,,CLR,0.11,VWS V12.08,2013-07-27 05:04:00,
2013-07-27 01:09:00,72.1,66.0,30.04,ESE,112,0.0,0.0,81,0.00,,CLR,0.11,VWS V12.08,2013-07-27 05:09:00,
2013-07-27 01:14:00,72.1,66.0,30.03,ESE,112,0.0,0.0,81,0.00,,CLR,0.11,VWS V12.08,2013-07-27 05:14:00,
2013-07-27 01:19:00,72.1,65.6,30.03,East,90,0.0,0.0,80,0.00,,CLR,0.11,VWS V12.08,2013-07-27 05:19:00,
2013-07-27 01:24:00,72.1,65.6,30.03,NNE,22,0.0,0.0,80,0.00,,CLR,0.11,VWS V12.08,2013-07-27 05:24:00,
2013-07-27 01:29:00,72.1,65.6,30.02,ENE,68,0.0,1.1,80,0.00,,CLR,0.11,VWS V12.08,2013-07-27 05:29:00,
2013-07-27 01:34:00,72.0,65.5,30.02,ENE,68,0.0,1.1,80,0.00,,CLR,0.11,VWS V12.08,2013-07-27 05:34:00,
2013-07-27 01:39:00,72.0,65.5,30.02,ENE,68,0.0,1.1,80,0.00,,CLR,0.11,VWS V12.08,2013-07-27 05:39:00,
2013-07-27 01:44:00,72.0,65.5,30.02,East,90,0.0,0.0,80,0.00,,CLR,0.11,VWS V12.08,2013-07-27 05:44:00,
2013-07-27 01:49:00,72.0,65.5,30.01,East,90,0.0,0.0,80,0.00,,CLR,0.11,VWS V12.08,2013-07-27 05:49:00,
2013-07-27 01:54:00,71.8,65.3,30.01,East,90,0.0,0.0,80,0.00,,CLR,0.11,VWS V12.08,2013-07-27 05:54:00,
2013-07-27 01:59:00,71.8,65.3,30.01,East,90,0.0,0.0,80,0.00,,CLR,0.11,VWS V12.08,2013-07-27 05:59:00,
2013-07-27 02:04:00,71.8,65.6,30.01,ENE,68,0.0,0.0,81,0.00,,CLR,0.11,VWS V12.08,2013-07-27 06:04:00,
2013-07-27 02:09:00,71.8,65.6,30.01,ENE,68,0.0,0.0,81,0.00,,CLR,0.11,VWS V12.08,2013-07-27 06:09:00,
2013-07-27 02:14:00,71.8,65.6,30.01,ENE,68,0.0,0.0,81,0.00,,CLR,0.11,VWS V12.08,2013-07-27 06:14:00,
2013-07-27 02:19:00,71.8,65.6,30.01,ENE,68,0.0,0.0,81,0.00,,CLR,0.11,VWS V12.08,2013-07-27 06:19:00,
2013-07-27 02:24:00,71.8,65.6,30.01,ESE,112,0.0,0.0,81,0.00,,CLR,0.11,VWS V12.08,2013-07-27 06:24:00,
2013-07-27 02:29:00,71.8,65.6,30.01,NE,45,0.0,0.0,81,0.00,,CLR,0.11,VWS V12.08,2013-07-27 06:29:00,
2013-07-27 02:34:00,71.8,65.6,30.01,ESE,112,0.0,0.0,81,0.00,,CLR,0.11,VWS V12.08,2013-07-27 06:34:00,
2013-07-27 02:39:00,71.8,65.6,30.01,SE,135,0.0,2.0,81,0.00,,CLR,0.11,VWS V12.08,2013-07-27 06:39:00,
2013-07-27 02:44:00,71.8,65.6,30.01,SE,135,0.0,0.0,81,0.00,,CLR,0.11,VWS V12.08,2013-07-27 06:44:00,
2013-07-27 02:49:00,71.4,65.6,30.01,ESE,112,0.0,0.0,82,0.00,,CLR,0.11,VWS V12.08,2013-07-27 06:49:00,
2013-07-27 02:54:00,71.4,66.0,30.01,ENE,68,0.0,0.0,83,0.00,,CLR,0.11,VWS V12.08,2013-07-27 06:54:00,
2013-07-27 02:59:00,71.2,65.8,30.00,ENE,68,0.0,0.0,83,0.00,,CLR,0.11,VWS V12.08,2013-07-27 06:59:00,
2013-07-27 03:04:00,71.2,65.8,30.00,ESE,112,0.0,0.0,83,0.00,,CLR,0.11,VWS V12.08,2013-07-27 07:04:00,
2013-07-27 03:09:00,70.9,65.8,30.01,ESE,112,0.0,2.0,84,0.00,,CLR,0.11,VWS V12.08,2013-07-27 07:09:00,
2013-07-27 03:14:00,70.9,65.8,30.01,WSW,248,0.0,2.0,84,0.00,,CLR,0.11,VWS V12.08,2013-07-27 07:14:00,
2013-07-27 03:19:00,70.9,65.8,30.02,WSW,248,0.0,2.0,84,0.00,,CLR,0.11,VWS V12.08,2013-07-27 07:19:00,
2013-07-27 03:24:00,70.5,65.5,30.02,NE,45,0.0,0.0,84,0.00,,CLR,0.11,VWS V12.08,2013-07-27 07:24:00,
2013-07-27 03:29:00,70.0,64.9,30.01,NW,315,0.0,0.0,84,0.02,,CLR,0.13,VWS V12.08,2013-07-27 07:29:00,
2013-07-27 03:34:00,69.8,64.8,30.01,NNW,338,0.0,0.0,84,0.02,,CLR,0.13,VWS V12.08,2013-07-27 07:34:00,
2013-07-27 03:39:00,69.4,64.7,30.01,NNW,338,0.0,0.0,85,0.06,,CLR,0.17,VWS V12.08,2013-07-27 07:39:00,
2013-07-27 03:44:00,69.4,64.7,30.01,North,0,0.0,0.0,85,0.06,,CLR,0.17,VWS V12.08,2013-07-27 07:44:00,
2013-07-27 03:49:00,69.3,64.9,30.01,North,0,0.0,0.0,86,0.06,,CLR,0.17,VWS V12.08,2013-07-27 07:49:00,
2013-07-27 03:54:00,69.1,64.7,30.00,North,0,0.0,0.0,86,0.06,,CLR,0.17,VWS V12.08,2013-07-27 07:54:00,
2013-07-27 03:59:00,69.1,64.7,30.00,North,0,0.0,0.0,86,0.06,,CLR,0.17,VWS V12.08,2013-07-27 07:59:00,
2013-07-27 04:04:00,69.1,64.7,30.00,East,90,0.0,0.0,86,0.06,,CLR,0.17,VWS V12.08,2013-07-27 08:04:00,
2013-07-27 04:09:00,69.1,64.7,30.00,East,90,0.0,0.0,86,0.06,,CLR,0.17,VWS V12.08,2013-07-27 08:09:00,
2013-07-27 04:14:00,68.9,64.6,29.99,East,90,0.0,0.0,86,0.06,,CLR,0.17,VWS V12.08,2013-07-27 08:14:00,
2013-07-27 04:19:00,68.9,64.6,29.99,East,90,0.0,0.0,86,0.06,,CLR,0.17,VWS V12.08,2013-07-27 08:19:00,
2013-07-27 04:24:00,68.9,64.6,29.99,East,90,0.0,0.0,86,0.09,,CLR,0.19,VWS V12.08,2013-07-27 08:24:00,
2013-07-27 04:29:00,68.9,64.6,29.99,East,90,0.0,0.0,86,0.06,,CLR,0.19,VWS V12.08,2013-07-27 08:29:00,
2013-07-27 04:34:00,68.9,64.6,29.99,ENE,68,0.0,0.0,86,0.06,,CLR,0.19,VWS V12.08,2013-07-27 08:34:00,
2013-07-27 04:39:00,68.9,64.6,29.99,East,90,0.0,0.0,86,0.02,,CLR,0.19,VWS V12.08,2013-07-27 08:39:00,
2013-07-27 04:44:00,68.9,64.9,29.99,East,90,0.0,0.0,87,0.02,,CLR,0.19,VWS V12.08,2013-07-27 08:44:00,
2013-07-27 04:50:00,68.9,64.9,29.99,East,90,0.0,0.0,87,0.02,,CLR,0.19,VWS V12.08,2013-07-27 08:50:00,
2013-07-27 04:55:00,68.9,64.9,30.00,East,90,0.0,0.0,87,0.02,,CLR,0.19,VWS V12.08,2013-07-27 08:55:00,
2013-07-27 05:00:00,68.9,64.9,30.00,East,90,0.0,0.0,87,0.02,,CLR,0.19,VWS V12.08,2013-07-27 09:00:00,
2013-07-27 05:05:00,68.9,64.9,30.00,East,90,0.0,0.0,87,0.02,,CLR,0.19,VWS V12.08,2013-07-27 09:05:00,
2013-07-27 05:10:00,68.9,64.9,30.00,East,90,0.0,0.0,87,0.02,,CLR,0.19,VWS V12.08,2013-07-27 09:10:00,
2013-07-27 05:15:00,68.9,64.9,30.00,East,90,0.0,0.0,87,0.04,,CLR,0.24,VWS V12.08,2013-07-27 09:15:00,
2013-07-27 05:20:00,68.9,64.9,30.00,East,90,0.0,0.0,87,0.09,,CLR,0.28,VWS V12.08,2013-07-27 09:20:00,
2013-07-27 05:25:00,68.9,64.9,30.01,ENE,68,0.0,0.0,87,0.09,,CLR,0.28,VWS V12.08,2013-07-27 09:25:00,
2013-07-27 05:30:00,68.7,64.7,30.01,East,90,0.0,0.0,87,0.11,,CLR,0.30,VWS V12.08,2013-07-27 09:30:00,
2013-07-27 05:35:00,68.7,64.7,30.01,East,90,0.0,0.0,87,0.13,,CLR,0.32,VWS V12.08,2013-07-27 09:35:00,
2013-07-27 05:40:00,68.7,64.7,30.01,East,90,0.0,0.0,87,0.13,,CLR,0.32,VWS V12.08,2013-07-27 09:40:00,
2013-07-27 05:45:00,68.7,64.7,30.01,East,90,0.0,0.0,87,0.13,,CLR,0.32,VWS V12.08,2013-07-27 09:45:00,
2013-07-27 05:50:00,68.7,65.0,29.99,East,90,0.0,0.0,88,0.35,,CLR,0.54,VWS V12.08,2013-07-27 09:50:00,
2013-07-27 05:55:00,68.7,64.7,30.00,East,90,0.0,0.0,87,0.37,,CLR,0.56,VWS V12.08,2013-07-27 09:55:00,
2013-07-27 06:00:00,68.5,64.8,30.00,East,90,0.0,0.0,88,0.37,,CLR,0.58,VWS V12.08,2013-07-27 10:00:00,
2013-07-27 06:05:00,68.5,64.8,30.01,East,90,0.0,0.0,88,0.39,,CLR,0.58,VWS V12.08,2013-07-27 10:05:00,
2013-07-27 06:10:00,68.5,64.8,30.00,East,90,0.0,0.0,88,0.43,,CLR,0.67,VWS V12.08,2013-07-27 10:10:00,
2013-07-27 06:16:00,68.5,64.8,30.00,West,270,0.0,0.0,88,0.54,,CLR,0.82,VWS V12.08,2013-07-27 10:16:00,
2013-07-27 06:21:00,68.4,64.7,30.00,WSW,248,0.0,0.0,88,0.58,,CLR,0.86,VWS V12.08,2013-07-27 10:21:00,
2013-07-27 06:26:00,68.4,64.7,30.01,West,270,0.0,0.0,88,0.58,,CLR,0.86,VWS V12.08,2013-07-27 10:26:00,
2013-07-27 06:31:00,68.4,65.0,30.01,NW,315,0.0,0.9,89,0.58,,CLR,0.89,VWS V12.08,2013-07-27 10:31:00,
2013-07-27 06:36:00,68.4,65.0,30.01,NW,315,0.0,0.9,89,0.56,,CLR,0.89,VWS V12.08,2013-07-27 10:36:00,
2013-07-27 06:41:00,68.4,65.0,30.01,WNW,292,0.0,0.0,89,0.58,,CLR,0.91,VWS V12.08,2013-07-27 10:41:00,
2013-07-27 06:46:00,68.4,65.0,30.02,West,270,0.0,0.0,89,0.50,,CLR,0.91,VWS V12.08,2013-07-27 10:46:00,
2013-07-27 06:52:00,68.4,65.0,30.01,WNW,292,0.0,0.0,89,0.37,,CLR,0.91,VWS V12.08,2013-07-27 10:52:00,
2013-07-27 06:57:00,68.4,65.0,30.01,West,270,0.0,0.0,89,0.35,,CLR,0.91,VWS V12.08,2013-07-27 10:57:00,
2013-07-27 07:02:00,68.4,65.0,30.01,NE,45,0.0,0.0,89,0.32,,CLR,0.91,VWS V12.08,2013-07-27 11:02:00,
2013-07-27 07:07:00,68.4,65.0,30.00,NE,45,0.0,0.0,89,0.30,,CLR,0.91,VWS V12.08,2013-07-27 11:07:00,
2013-07-27 07:12:00,68.4,65.0,30.00,NE,45,0.0,0.0,89,0.09,,CLR,0.91,VWS V12.08,2013-07-27 11:12:00,
2013-07-27 07:17:00,68.4,65.0,30.01,NE,45,0.0,0.0,89,0.04,,CLR,0.91,VWS V12.08,2013-07-27 11:17:00,
2013-07-27 07:22:00,68.4,65.0,30.01,NE,45,0.0,0.0,89,0.04,,CLR,0.91,VWS V12.08,2013-07-27 11:22:00,
2013-07-27 07:27:00,68.2,64.8,30.01,NE,45,0.0,0.0,89,0.04,,CLR,0.91,VWS V12.08,2013-07-27 11:27:00,
2013-07-27 07:32:00,68.2,64.8,30.01,NE,45,0.0,0.0,89,0.02,,CLR,0.91,VWS V12.08,2013-07-27 11:32:00,
2013-07-27 07:37:00,68.4,65.0,30.00,NE,45,0.0,0.0,89,0.00,,CLR,0.91,VWS V12.08,2013-07-27 11:37:00,
2013-07-27 07:42:00,68.4,65.0,30.00,NE,45,0.0,0.0,89,0.00,,CLR,0.91,VWS V12.08,2013-07-27 11:42:00,
2013-07-27 07:47:00,68.4,65.0,30.00,NE,45,0.0,0.0,89,0.00,,CLR,0.91,VWS V12.08,2013-07-27 11:47:00,
2013-07-27 07:52:00,68.5,65.2,30.00,NE,45,0.0,0.0,89,0.00,,CLR,0.91,VWS V12.08,2013-07-27 11:52:00,
2013-07-27 07:57:00,68.5,65.2,30.00,NE,45,0.0,0.0,89,0.00,,CLR,0.91,VWS V12.08,2013-07-27 11:57:00,
2013-07-27 08:02:00,68.5,65.2,30.01,NE,45,0.0,0.0,89,0.00,,CLR,0.91,VWS V12.08,2013-07-27 12:02:00,
2013-07-27 08:08:00,68.5,65.2,30.01,NE,45,0.0,0.0,89,0.02,,CLR,0.93,VWS V12.08,2013-07-27 12:08:00,
2013-07-27 08:13:00,68.4,65.0,30.00,NNW,338,0.0,0.0,89,0.11,,CLR,1.02,VWS V12.08,2013-07-27 12:13:00,
2013-07-27 08:18:00,68.4,65.0,30.01,West,270,0.0,0.0,89,0.17,,CLR,1.15,VWS V12.08,2013-07-27 12:18:00,
2013-07-27 08:23:00,68.4,65.0,30.02,West,270,0.0,0.0,89,0.24,,CLR,1.15,VWS V12.08,2013-07-27 12:23:00,
2013-07-27 08:28:00,68.4,65.0,30.02,West,270,0.0,0.0,89,0.24,,CLR,1.15,VWS V12.08,2013-07-27 12:28:00,
2013-07-27 08:33:00,67.8,64.5,30.01,West,270,0.0,0.0,89,0.26,,CLR,1.17,VWS V12.08,2013-07-27 12:33:00,
2013-07-27 08:38:00,67.8,64.5,30.01,WSW,248,0.0,0.0,89,0.26,,CLR,1.17,VWS V12.08,2013-07-27 12:38:00,
2013-07-27 08:43:00,67.8,64.5,30.01,SE,135,0.0,0.0,89,0.26,,CLR,1.17,VWS V12.08,2013-07-27 12:43:00,
2013-07-27 08:48:00,67.8,64.8,30.01,SSE,158,0.0,0.0,90,1.10,,CLR,2.01,VWS V12.08,2013-07-27 12:48:00,
2013-07-27 08:53:00,67.8,64.8,30.01,SSE,158,0.0,0.0,90,1.10,,CLR,2.01,VWS V12.08,2013-07-27 12:53:00,
2013-07-27 08:58:00,68.0,65.0,30.01,SSE,158,0.0,0.0,90,1.17,,CLR,2.07,VWS V12.08,2013-07-27 12:58:00,
2013-07-27 09:03:00,68.0,65.0,30.01,SSE,158,0.0,0.0,90,1.17,,CLR,2.07,VWS V12.08,2013-07-27 13:03:00,
2013-07-27 09:08:00,68.0,65.0,30.01,SE,135,0.0,0.0,90,1.08,,CLR,2.10,VWS V12.08,2013-07-27 13:08:00,
2013-07-27 09:13:00,68.0,65.0,30.01,ENE,68,0.0,0.0,90,1.15,,CLR,2.25,VWS V12.08,2013-07-27 13:13:00,
2013-07-27 09:18:00,68.2,65.1,30.01,ENE,68,0.0,0.0,90,1.10,,CLR,2.25,VWS V12.08,2013-07-27 13:18:00,
2013-07-27 09:23:00,68.2,65.1,30.01,ENE,68,0.0,0.0,90,1.12,,CLR,2.27,VWS V12.08,2013-07-27 13:23:00,
2013-07-27 09:28:00,68.2,65.1,30.01,ENE,68,0.0,0.0,90,1.12,,CLR,2.29,VWS V12.08,2013-07-27 13:28:00,
2013-07-27 09:33:00,68.2,65.1,30.01,ENE,68,0.0,0.0,90,1.12,,CLR,2.29,VWS V12.08,2013-07-27 13:33:00,
2013-07-27 09:38:00,68.2,65.1,30.01,ENE,68,0.0,0.0,90,1.15,,CLR,2.31,VWS V12.08,2013-07-27 13:38:00,
2013-07-27 09:43:00,68.4,65.3,30.01,ENE,68,0.0,0.0,90,1.15,,CLR,2.31,VWS V12.08,2013-07-27 13:43:00,
2013-07-27 09:48:00,68.4,65.3,30.01,ENE,68,0.0,0.0,90,0.30,,CLR,2.31,VWS V12.08,2013-07-27 13:48:00,
2013-07-27 09:54:00,68.4,65.3,30.01,North,0,0.0,0.0,90,1.17,,CLR,2.33,VWS V12.08,2013-07-27 13:54:00,
2013-07-27 09:59:00,68.4,65.3,30.01,North,0,0.0,0.0,90,0.26,,CLR,2.33,VWS V12.08,2013-07-27 13:59:00,
2013-07-27 10:04:00,68.4,65.3,30.01,NNW,338,0.0,0.0,90,0.26,,CLR,2.33,VWS V12.08,2013-07-27 14:04:00,
2013-07-27 10:09:00,68.7,65.7,30.01,NNW,338,0.0,0.0,90,0.11,,CLR,2.33,VWS V12.08,2013-07-27 14:09:00,
2013-07-27 10:14:00,68.5,65.5,30.01,NNW,338,0.0,0.0,90,0.09,,CLR,2.33,VWS V12.08,2013-07-27 14:14:00,
2013-07-27 10:19:00,68.7,65.7,30.01,NNE,22,0.0,0.0,90,0.06,,CLR,2.33,VWS V12.08,2013-07-27 14:19:00,
2013-07-27 10:24:00,68.9,65.8,30.01,NNE,22,0.0,0.0,90,0.09,,CLR,2.36,VWS V12.08,2013-07-27 14:24:00,
2013-07-27 10:29:00,68.9,65.8,30.01,NNE,22,0.0,0.0,90,0.06,,CLR,2.36,VWS V12.08,2013-07-27 14:29:00,
2013-07-27 10:34:00,68.9,65.8,30.00,NNE,22,0.0,0.0,90,0.06,,CLR,2.36,VWS V12.08,2013-07-27 14:34:00,
2013-07-27 10:39:00,68.9,65.8,30.00,NNE,22,0.0,0.0,90,0.04,,CLR,2.36,VWS V12.08,2013-07-27 14:39:00,
2013-07-27 10:44:00,68.9,65.8,30.00,NNE,22,0.0,0.0,90,0.04,,CLR,2.36,VWS V12.08,2013-07-27 14:44:00,
2013-07-27 10:49:00,69.1,66.0,30.01,NNE,22,0.0,0.0,90,0.04,,CLR,2.36,VWS V12.08,2013-07-27 14:49:00,
2013-07-27 10:54:00,69.1,66.0,30.01,NNE,22,0.0,0.0,90,0.02,,CLR,2.36,VWS V12.08,2013-07-27 14:54:00,
2013-07-27 10:59:00,69.1,66.0,30.01,NNE,22,0.0,0.0,90,0.02,,CLR,2.36,VWS V12.08,2013-07-27 14:59:00,
2013-07-27 11:04:00,69.1,66.0,30.00,NNE,22,0.0,0.0,90,0.04,,CLR,2.27,VWS V12.08,2013-07-27 15:04:00,
2013-07-27 11:10:00,69.1,66.0,30.00,WNW,292,0.0,0.0,90,0.04,,CLR,2.27,VWS V12.08,2013-07-27 15:10:00,
2013-07-27 11:15:00,69.3,66.2,30.00,ENE,68,0.0,0.0,90,0.04,,CLR,2.27,VWS V12.08,2013-07-27 15:15:00,
2013-07-27 11:20:00,69.4,66.4,30.00,East,90,0.0,0.0,90,0.02,,CLR,2.27,VWS V12.08,2013-07-27 15:20:00,
2013-07-27 11:25:00,69.6,66.6,30.00,East,90,0.0,0.0,90,0.02,,CLR,2.27,VWS V12.08,2013-07-27 15:25:00,
2013-07-27 11:30:00,69.6,66.6,29.99,East,90,0.0,0.0,90,0.02,,CLR,2.27,VWS V12.08,2013-07-27 15:30:00,
2013-07-27 11:35:00,70.0,66.9,30.00,East,90,0.0,0.0,90,0.02,,CLR,2.27,VWS V12.08,2013-07-27 15:35:00,
2013-07-27 11:40:00,70.0,66.9,30.00,East,90,0.0,0.0,90,0.02,,CLR,2.27,VWS V12.08,2013-07-27 15:40:00,
2013-07-27 11:45:00,70.0,66.9,30.00,East,90,0.0,0.0,90,0.02,,CLR,2.27,VWS V12.08,2013-07-27 15:45:00,
2013-07-27 11:50:00,70.2,67.1,30.00,East,90,0.0,0.0,90,0.02,,CLR,2.27,VWS V12.08,2013-07-27 15:50:00,
2013-07-27 11:55:00,70.2,67.1,30.00,ENE,68,0.0,0.0,90,0.02,,CLR,2.27,VWS V12.08,2013-07-27 15:55:00,
2013-07-27 12:00:00,70.2,67.1,30.01,ENE,68,0.0,0.0,90,0.02,,CLR,2.27,VWS V12.08,2013-07-27 16:00:00,
2013-07-27 12:05:00,70.3,67.3,30.01,ENE,68,0.0,0.0,90,0.00,,CLR,2.27,VWS V12.08,2013-07-27 16:05:00,
2013-07-27 12:10:00,70.2,67.1,30.01,ENE,68,0.0,0.0,90,0.00,,CLR,2.27,VWS V12.08,2013-07-27 16:10:00,
2013-07-27 12:15:00,70.2,67.1,30.01,ENE,68,0.0,0.0,90,0.02,,CLR,2.29,VWS V12.08,2013-07-27 16:15:00,
2013-07-27 12:20:00,70.3,67.3,30.01,ENE,68,0.0,0.0,90,0.02,,CLR,2.29,VWS V12.08,2013-07-27 16:20:00,
2013-07-27 12:26:00,70.3,67.3,30.01,WNW,292,0.0,0.0,90,0.02,,CLR,2.29,VWS V12.08,2013-07-27 16:26:00,
2013-07-27 12:31:00,70.3,67.3,30.01,WNW,292,0.0,0.0,90,0.02,,CLR,2.29,VWS V12.08,2013-07-27 16:31:00,
2013-07-27 12:36:00,70.3,67.3,30.00,WNW,292,0.0,0.0,90,0.02,,CLR,2.29,VWS V12.08,2013-07-27 16:36:00,
2013-07-27 12:41:00,70.3,67.3,30.01,WNW,292,0.0,0.0,90,0.02,,CLR,2.29,VWS V12.08,2013-07-27 16:41:00,
2013-07-27 12:46:00,70.5,67.4,29.99,WNW,292,0.0,0.0,90,0.02,,CLR,2.29,VWS V12.08,2013-07-27 16:46:00,
2013-07-27 12:51:00,70.5,67.4,29.99,WNW,292,0.0,0.0,90,0.02,,CLR,2.29,VWS V12.08,2013-07-27 16:51:00,
2013-07-27 12:56:00,70.9,67.8,29.99,WNW,292,0.0,0.0,90,0.02,,CLR,2.29,VWS V12.08,2013-07-27 16:56:00,
2013-07-27 13:01:00,70.9,67.8,29.98,WNW,292,0.0,0.0,90,0.02,,CLR,2.29,VWS V12.08,2013-07-27 17:01:00,
2013-07-27 13:06:00,71.2,68.2,29.98,NNE,22,0.0,0.0,90,0.02,,CLR,2.29,VWS V12.08,2013-07-27 17:06:00,
2013-07-27 13:11:00,71.4,68.3,29.98,WNW,292,0.0,0.0,90,0.00,,CLR,2.29,VWS V12.08,2013-07-27 17:11:00,
2013-07-27 13:16:00,71.6,68.8,29.99,WNW,292,0.0,0.0,91,0.00,,CLR,2.29,VWS V12.08,2013-07-27 17:16:00,
2013-07-27 13:21:00,71.6,68.8,29.99,WNW,292,0.0,0.0,91,0.00,,CLR,2.29,VWS V12.08,2013-07-27 17:21:00,
2013-07-27 13:26:00,71.8,68.7,29.98,WNW,292,0.0,0.0,90,0.00,,CLR,2.29,VWS V12.08,2013-07-27 17:26:00,
2013-07-27 13:31:00,71.8,68.7,29.98,WNW,292,0.0,0.0,90,0.00,,CLR,2.29,VWS V12.08,2013-07-27 17:31:00,
2013-07-27 13:37:00,72.0,68.9,29.98,WNW,292,0.0,0.0,90,0.00,,CLR,2.29,VWS V12.08,2013-07-27 17:37:00,
2013-07-27 13:42:00,72.1,69.1,29.98,WNW,292,0.0,0.0,90,0.00,,CLR,2.29,VWS V12.08,2013-07-27 17:42:00,
2013-07-27 13:47:00,72.5,69.1,29.98,WNW,292,0.0,0.9,89,0.00,,CLR,2.29,VWS V12.08,2013-07-27 17:47:00,
2013-07-27 13:52:00,73.0,69.6,29.98,WNW,292,0.0,0.9,89,0.00,,CLR,2.29,VWS V12.08,2013-07-27 17:52:00,
2013-07-27 13:57:00,73.4,70.0,29.97,WNW,292,0.0,0.9,89,0.00,,CLR,2.29,VWS V12.08,2013-07-27 17:57:00,
2013-07-27 14:02:00,73.9,70.5,29.97,North,0,0.0,0.0,89,0.00,,CLR,2.29,VWS V12.08,2013-07-27 18:02:00,
2013-07-27 14:07:00,74.1,70.7,29.97,NNW,338,0.0,0.0,89,0.00,,CLR,2.29,VWS V12.08,2013-07-27 18:07:00,
2013-07-27 14:12:00,75.0,71.2,29.97,NE,45,0.0,0.0,88,0.00,,CLR,2.29,VWS V12.08,2013-07-27 18:12:00,
2013-07-27 14:17:00,75.7,71.9,29.97,NE,45,0.0,0.0,88,0.00,,CLR,2.29,VWS V12.08,2013-07-27 18:17:00,
2013-07-27 14:22:00,75.7,71.9,29.97,NE,45,0.0,0.0,88,0.00,,CLR,2.29,VWS V12.08,2013-07-27 18:22:00,
2013-07-27 14:27:00,76.1,70.9,29.96,ENE,68,0.0,0.0,84,0.00,,CLR,2.29,VWS V12.08,2013-07-27 18:27:00,
2013-07-27 14:32:00,76.1,70.9,29.96,ENE,68,0.0,0.0,84,0.00,,CLR,2.29,VWS V12.08,2013-07-27 18:32:00,
2013-07-27 14:37:00,75.9,70.7,29.96,ENE,68,0.0,0.0,84,0.00,,CLR,2.29,VWS V12.08,2013-07-27 18:37:00,
2013-07-27 14:43:00,75.9,70.7,29.96,ENE,68,0.0,0.0,84,0.00,,CLR,2.29,VWS V12.08,2013-07-27 18:43:00,
2013-07-27 14:48:00,75.9,70.7,29.96,ENE,68,0.0,0.0,84,0.00,,CLR,2.29,VWS V12.08,2013-07-27 18:48:00,
2013-07-27 14:53:00,75.9,70.7,29.96,ENE,68,0.0,0.0,84,0.00,,CLR,2.29,VWS V12.08,2013-07-27 18:53:00,
2013-07-27 14:58:00,76.8,71.6,29.96,ENE,68,0.0,0.0,84,0.00,,CLR,2.29,VWS V12.08,2013-07-27 18:58:00,
2013-07-27 15:03:00,76.8,70.9,29.96,ENE,68,0.0,0.0,82,0.00,,CLR,2.29,VWS V12.08,2013-07-27 19:03:00,
2013-07-27 15:08:00,76.8,70.9,29.96,SSE,158,0.0,0.0,82,0.00,,CLR,2.29,VWS V12.08,2013-07-27 19:08:00,
2013-07-27 15:13:00,76.6,70.7,29.95,SE,135,0.0,0.0,82,0.00,,CLR,2.29,VWS V12.08,2013-07-27 19:13:00,
2013-07-27 15:18:00,76.6,70.7,29.95,SE,135,0.0,0.0,82,0.00,,CLR,2.29,VWS V12.08,2013-07-27 19:18:00,
2013-07-27 15:23:00,76.5,70.6,29.95,SE,135,0.0,0.0,82,0.00,,CLR,2.29,VWS V12.08,2013-07-27 19:23:00,
2013-07-27 15:28:00,76.3,70.4,29.95,NE,45,0.0,0.0,82,0.00,,CLR,2.29,VWS V12.08,2013-07-27 19:28:00,
2013-07-27 15:33:00,76.6,70.7,29.95,NE,45,0.0,0.0,82,0.00,,CLR,2.29,VWS V12.08,2013-07-27 19:33:00,
2013-07-27 15:38:00,76.6,70.7,29.95,East,90,0.0,2.0,82,0.00,,CLR,2.29,VWS V12.08,2013-07-27 19:38:00,
2013-07-27 15:43:00,76.6,70.7,29.94,East,90,0.0,0.0,82,0.00,,CLR,2.29,VWS V12.08,2013-07-27 19:43:00,
2013-07-27 15:48:00,76.6,70.7,29.94,East,90,0.0,0.0,82,0.00,,CLR,2.29,VWS V12.08,2013-07-27 19:48:00,
2013-07-27 15:53:00,76.8,70.6,29.94,East,90,0.0,0.0,81,0.00,,CLR,2.29,VWS V12.08,2013-07-27 19:53:00,
2013-07-27 15:59:00,77.4,70.7,29.94,East,90,0.0,0.0,80,0.00,,CLR,2.29,VWS V12.08,2013-07-27 19:59:00,
2013-07-27 16:04:00,77.5,70.9,29.94,East,90,0.0,0.0,80,0.00,,CLR,2.29,VWS V12.08,2013-07-27 20:04:00,
2013-07-27 16:09:00,77.5,70.1,29.93,NE,45,0.0,0.0,78,0.00,,CLR,2.29,VWS V12.08,2013-07-27 20:09:00,
2013-07-27 16:14:00,77.5,70.1,29.93,NE,45,0.0,0.0,78,0.00,,CLR,2.29,VWS V12.08,2013-07-27 20:14:00,
2013-07-27 16:19:00,77.5,70.1,29.93,NE,45,0.0,0.0,78,0.00,,CLR,2.29,VWS V12.08,2013-07-27 20:19:00,
2013-07-27 16:24:00,77.2,69.8,29.93,East,90,0.0,0.0,78,0.00,,CLR,2.29,VWS V12.08,2013-07-27 20:24:00,
2013-07-27 16:29:00,77.2,69.8,29.93,East,90,0.0,0.0,78,0.00,,CLR,2.29,VWS V12.08,2013-07-27 20:29:00,
2013-07-27 16:34:00,77.2,70.2,29.93,East,90,0.0,0.0,79,0.00,,CLR,2.29,VWS V12.08,2013-07-27 20:34:00,
2013-07-27 16:39:00,77.2,70.2,29.93,East,90,0.0,0.0,79,0.00,,CLR,2.29,VWS V12.08,2013-07-27 20:39:00,
2013-07-27 16:44:00,77.2,70.5,29.93,ENE,68,0.0,0.0,80,0.00,,CLR,2.29,VWS V12.08,2013-07-27 20:44:00,
2013-07-27 16:49:00,77.4,70.3,29.93,ENE,68,0.0,0.0,79,0.00,,CLR,2.29,VWS V12.08,2013-07-27 20:49:00,
2013-07-27 16:54:00,77.4,70.3,29.93,ENE,68,0.0,0.0,79,0.00,,CLR,2.29,VWS V12.08,2013-07-27 20:54:00,
2013-07-27 16:59:00,77.4,70.3,29.93,ENE,68,0.0,0.0,79,0.00,,CLR,2.29,VWS V12.08,2013-07-27 20:59:00,
2013-07-27 17:04:00,76.8,69.8,29.94,ENE,68,0.0,0.0,79,0.00,,CLR,2.29,VWS V12.08,2013-07-27 21:04:00,
2013-07-27 17:09:00,76.8,69.8,29.94,East,90,0.0,0.0,79,0.00,,CLR,2.29,VWS V12.08,2013-07-27 21:09:00,
2013-07-27 17:14:00,76.6,69.6,29.94,East,90,0.0,0.0,79,0.00,,CLR,2.29,VWS V12.08,2013-07-27 21:14:00,
2013-07-27 17:19:00,76.3,69.3,29.94,East,90,0.0,0.0,79,0.00,,CLR,2.29,VWS V12.08,2013-07-27 21:19:00,
2013-07-27 17:24:00,76.1,69.5,29.94,East,90,0.0,0.0,80,0.00,,CLR,2.29,VWS V12.08,2013-07-27 21:24:00,
2013-07-27 17:29:00,76.1,69.8,29.93,East,90,0.0,0.0,81,0.00,,CLR,2.29,VWS V12.08,2013-07-27 21:29:00,
2013-07-27 17:35:00,75.9,69.7,29.94,East,90,0.0,0.0,81,0.00,,CLR,2.29,VWS V12.08,2013-07-27 21:35:00,
2013-07-27 17:40:00,75.9,70.0,29.93,East,90,0.0,0.0,82,0.00,,CLR,2.29,VWS V12.08,2013-07-27 21:40:00,
2013-07-27 17:45:00,75.9,70.0,29.93,East,90,0.0,0.0,82,0.00,,CLR,2.29,VWS V12.08,2013-07-27 21:45:00,
2013-07-27 17:50:00,75.9,69.7,29.93,ENE,68,0.0,0.0,81,0.00,,CLR,2.29,VWS V12.08,2013-07-27 21:50:00,
2013-07-27 17:55:00,75.7,69.5,29.93,ENE,68,0.0,0.0,81,0.00,,CLR,2.29,VWS V12.08,2013-07-27 21:55:00,
2013-07-27 18:00:00,75.6,69.3,29.93,ESE,112,0.0,0.0,81,0.00,,CLR,2.29,VWS V12.08,2013-07-27 22:00:00,
2013-07-27 18:05:00,75.6,69.3,29.93,ESE,112,0.0,0.0,81,0.00,,CLR,2.29,VWS V12.08,2013-07-27 22:05:00,
2013-07-27 18:10:00,75.4,69.2,29.93,SSE,158,0.0,0.0,81,0.00,,CLR,2.29,VWS V12.08,2013-07-27 22:10:00,
2013-07-27 18:15:00,75.0,68.8,29.93,NNE,22,0.0,0.0,81,0.00,,CLR,2.29,VWS V12.08,2013-07-27 22:15:00,
2013-07-27 18:20:00,74.8,68.6,29.94,NW,315,0.0,0.0,81,0.00,,CLR,2.29,VWS V12.08,2013-07-27 22:20:00,
2013-07-27 18:25:00,74.8,69.0,29.94,NE,45,0.0,0.0,82,0.00,,CLR,2.29,VWS V12.08,2013-07-27 22:25:00,
2013-07-27 18:30:00,74.8,69.0,29.93,NE,45,0.0,0.0,82,0.00,,CLR,2.29,VWS V12.08,2013-07-27 22:30:00,
2013-07-27 18:35:00,74.8,69.0,29.93,ESE,112,0.0,0.0,82,0.00,,CLR,2.29,VWS V12.08,2013-07-27 22:35:00,
2013-07-27 18:41:00,74.8,69.0,29.94,SSW,202,0.0,0.0,82,0.00,,CLR,2.29,VWS V12.08,2013-07-27 22:41:00,
2013-07-27 18:46:00,74.5,68.3,29.94,SSE,158,0.0,0.0,81,0.00,,CLR,2.29,VWS V12.08,2013-07-27 22:46:00,
2013-07-27 18:51:00,74.5,68.3,29.94,East,90,0.0,0.0,81,0.00,,CLR,2.29,VWS V12.08,2013-07-27 22:51:00,
2013-07-27 18:56:00,74.3,68.1,29.93,NE,45,0.0,0.0,81,0.00,,CLR,2.29,VWS V12.08,2013-07-27 22:56:00,
2013-07-27 19:01:00,74.3,68.1,29.94,NE,45,0.0,0.0,81,0.00,,CLR,2.29,VWS V12.08,2013-07-27 23:01:00,
2013-07-27 19:06:00,74.3,68.1,29.94,NE,45,0.0,0.0,81,0.00,,CLR,2.29,VWS V12.08,2013-07-27 23:06:00,
2013-07-27 19:11:00,73.9,67.8,29.94,NE,45,0.0,0.0,81,0.00,,CLR,2.29,VWS V12.08,2013-07-27 23:11:00,
2013-07-27 19:16:00,73.9,67.8,29.94,NE,45,0.0,0.0,81,0.00,,CLR,2.29,VWS V12.08,2013-07-27 23:16:00,
2013-07-27 19:21:00,73.4,67.6,29.93,East,90,0.0,0.0,82,0.00,,CLR,2.29,VWS V12.08,2013-07-27 23:21:00,
2013-07-27 19:26:00,73.2,67.4,29.93,East,90,0.0,0.0,82,0.00,,CLR,2.29,VWS V12.08,2013-07-27 23:26:00,
2013-07-27 19:31:00,73.0,67.2,29.94,North,0,0.0,0.0,82,0.00,,CLR,2.29,VWS V12.08,2013-07-27 23:31:00,
2013-07-27 19:37:00,72.5,66.7,29.94,ENE,68,0.0,0.0,82,0.00,,CLR,2.29,VWS V12.08,2013-07-27 23:37:00,
2013-07-27 19:42:00,72.3,66.9,29.95,ENE,68,0.0,0.0,83,0.00,,CLR,2.29,VWS V12.08,2013-07-27 23:42:00,
2013-07-27 19:47:00,72.1,66.7,29.94,NNW,338,0.0,0.0,83,0.00,,CLR,2.29,VWS V12.08,2013-07-27 23:47:00,
2013-07-27 19:52:00,72.0,66.5,29.93,NNW,338,0.0,0.0,83,0.00,,CLR,2.29,VWS V12.08,2013-07-27 23:52:00,
2013-07-27 19:57:00,71.8,66.3,29.94,West,270,0.0,0.0,83,0.00,,CLR,2.29,VWS V12.08,2013-07-27 23:57:00,
2013-07-27 20:02:00,71.4,66.0,29.94,North,0,0.0,0.0,83,0.00,,CLR,2.29,VWS V12.08,2013-07-28 00:02:00,
2013-07-27 20:07:00,71.4,66.3,29.94,North,0,0.0,0.0,84,0.00,,CLR,2.29,VWS V12.08,2013-07-28 00:07:00,
2013-07-27 20:12:00,71.2,66.2,29.95,North,0,0.0,0.0,84,0.00,,CLR,2.29,VWS V12.08,2013-07-28 00:12:00,
2013-07-27 20:17:00,71.2,66.2,29.95,ENE,68,0.0,0.0,84,0.00,,CLR,2.29,VWS V12.08,2013-07-28 00:17:00,
2013-07-27 20:22:00,71.2,66.5,29.96,ENE,68,0.0,0.0,85,0.00,,CLR,2.29,VWS V12.08,2013-07-28 00:22:00,
2013-07-27 20:27:00,71.2,66.5,29.96,ENE,68,0.0,0.0,85,0.00,,CLR,2.29,VWS V12.08,2013-07-28 00:27:00,
2013-07-27 20:32:00,71.2,66.5,29.96,ENE,68,0.0,0.0,85,0.00,,CLR,2.29,VWS V12.08,2013-07-28 00:32:00,
2013-07-27 20:36:00,70.9,66.2,29.96,NW,315,0.0,0.0,85,0.00,,CLR,2.29,VWS V12.08,2013-07-28 00:36:00,
2013-07-27 20:42:00,70.9,66.2,29.96,NNW,338,0.0,0.0,85,0.00,,CLR,2.29,VWS V12.08,2013-07-28 00:42:00,
2013-07-27 20:47:00,70.9,66.2,29.96,NNW,338,0.0,0.0,85,0.00,,CLR,2.29,VWS V12.08,2013-07-28 00:47:00,
2013-07-27 20:52:00,70.9,66.2,29.96,NNW,338,0.0,0.0,85,0.00,,CLR,2.29,VWS V12.08,2013-07-28 00:52:00,
2013-07-27 20:57:00,70.9,66.2,29.96,NNW,338,0.0,0.0,85,0.00,,CLR,2.29,VWS V12.08,2013-07-28 00:57:00,
2013-07-27 21:02:00,70.7,66.0,29.96,East,90,0.0,0.0,85,0.00,,CLR,2.29,VWS V12.08,2013-07-28 01:02:00,
2013-07-27 21:07:00,70.7,66.0,29.96,ENE,68,0.0,0.0,85,0.00,,CLR,2.29,VWS V12.08,2013-07-28 01:07:00,
2013-07-27 21:12:00,70.5,66.1,29.96,ENE,68,0.0,0.0,86,0.00,,CLR,2.29,VWS V12.08,2013-07-28 01:12:00,
2013-07-27 21:17:00,70.3,66.0,29.96,ENE,68,0.0,0.0,86,0.00,,CLR,2.29,VWS V12.08,2013-07-28 01:17:00,
2013-07-27 21:22:00,70.3,66.0,29.96,ENE,68,0.0,0.0,86,0.00,,CLR,2.29,VWS V12.08,2013-07-28 01:22:00,
2013-07-27 21:27:00,70.2,65.8,29.96,ENE,68,0.0,0.0,86,0.00,,CLR,2.29,VWS V12.08,2013-07-28 01:27:00,
2013-07-27 21:33:00,70.0,65.6,29.95,ENE,68,0.0,0.0,86,0.00,,CLR,2.29,VWS V12.08,2013-07-28 01:33:00,
2013-07-27 21:38:00,70.0,65.6,29.96,ENE,68,0.0,0.0,86,0.02,,CLR,2.31,VWS V12.08,2013-07-28 01:38:00,
2013-07-27 21:43:00,69.8,65.8,29.96,ENE,68,0.0,0.0,87,0.02,,CLR,2.31,VWS V12.08,2013-07-28 01:43:00,
2013-07-27 21:48:00,69.6,65.6,29.96,ENE,68,0.0,0.0,87,0.02,,CLR,2.31,VWS V12.08,2013-07-28 01:48:00,
2013-07-27 21:53:00,69.6,65.6,29.97,ENE,68,0.0,0.0,87,0.02,,CLR,2.31,VWS V12.08,2013-07-28 01:53:00,
2013-07-27 21:58:00,69.6,65.6,29.97,ENE,68,0.0,0.0,87,0.02,,CLR,2.31,VWS V12.08,2013-07-28 01:58:00,
2013-07-27 22:03:00,69.4,65.4,29.97,ENE,68,0.0,0.0,87,0.02,,CLR,2.31,VWS V12.08,2013-07-28 02:03:00,
2013-07-27 22:06:00,69.4,65.4,29.97,ENE,68,0.0,0.0,87,0.02,,CLR,2.31,VWS V12.08,2013-07-28 02:06:00,
2013-07-27 22:11:00,69.4,65.4,29.98,ENE,68,0.0,0.0,87,0.02,,CLR,2.31,VWS V12.08,2013-07-28 02:11:00,
2013-07-27 22:16:00,69.4,65.4,29.98,ENE,68,0.0,0.0,87,0.02,,CLR,2.31,VWS V12.08,2013-07-28 02:16:00,
2013-07-27 22:21:00,69.4,65.7,29.97,ENE,68,0.0,0.0,88,0.02,,CLR,2.31,VWS V12.08,2013-07-28 02:21:00,
2013-07-27 22:27:00,69.4,65.7,29.98,ENE,68,0.0,0.0,88,0.02,,CLR,2.31,VWS V12.08,2013-07-28 02:27:00,
2013-07-27 22:32:00,69.4,65.7,29.97,ENE,68,0.0,0.0,88,0.02,,CLR,2.31,VWS V12.08,2013-07-28 02:32:00,
2013-07-27 22:37:00,69.4,65.7,29.97,ENE,68,0.0,0.0,88,0.00,,CLR,2.31,VWS V12.08,2013-07-28 02:37:00,
2013-07-27 22:42:00,69.4,65.7,29.97,ENE,68,0.0,0.0,88,0.00,,CLR,2.31,VWS V12.08,2013-07-28 02:42:00,
2013-07-27 22:47:00,69.4,65.7,29.98,ENE,68,0.0,0.0,88,0.00,,CLR,2.31,VWS V12.08,2013-07-28 02:47:00,
2013-07-27 22:52:00,69.4,65.7,29.97,East,90,0.0,0.0,88,0.00,,CLR,2.31,VWS V12.08,2013-07-28 02:52:00,
2013-07-27 22:57:00,69.4,65.7,29.97,East,90,0.0,0.0,88,0.00,,CLR,2.31,VWS V12.08,2013-07-28 02:57:00,
2013-07-27 23:02:00,69.4,65.7,29.97,East,90,0.0,0.0,88,0.00,,CLR,2.31,VWS V12.08,2013-07-28 03:02:00,
2013-07-27 23:07:00,69.4,65.7,29.97,East,90,0.0,0.0,88,0.00,,CLR,2.31,VWS V12.08,2013-07-28 03:07:00,
2013-07-27 23:12:00,69.4,65.7,29.98,East,90,0.0,0.0,88,0.00,,CLR,2.31,VWS V12.08,2013-07-28 03:12:00,
2013-07-27 23:17:00,69.3,65.6,29.98,East,90,0.0,0.0,88,0.00,,CLR,2.31,VWS V12.08,2013-07-28 03:17:00,
2013-07-27 23:22:00,69.3,65.6,29.97,East,90,0.0,0.0,88,0.00,,CLR,2.31,VWS V12.08,2013-07-28 03:22:00,
2013-07-27 23:28:00,69.1,65.4,29.97,East,90,0.0,0.0,88,0.00,,CLR,2.31,VWS V12.08,2013-07-28 03:28:00,
2013-07-27 23:33:00,69.1,65.4,29.97,East,90,0.0,0.0,88,0.00,,CLR,2.31,VWS V12.08,2013-07-28 03:33:00,
2013-07-27 23:38:00,69.1,65.4,29.97,East,90,0.0,0.0,88,0.00,,CLR,2.31,VWS V12.08,2013-07-28 03:38:00,
2013-07-27 23:43:00,69.1,65.4,29.97,East,90,0.0,0.0,88,0.00,,CLR,2.31,VWS V12.08,2013-07-28 03:43:00,
2013-07-27 23:48:00,69.1,65.4,29.96,East,90,0.0,0.0,88,0.00,,CLR,2.31,VWS V12.08,2013-07-28 03:48:00,
2013-07-27 23:53:00,69.1,65.4,29.96,East,90,0.0,0.0,88,0.00,,CLR,2.31,VWS V12.08,2013-07-28 03:53:00,
2013-07-27 23:58:00,69.1,65.4,29.96,East,90,0.0,0.0,88,0.00,,CLR,2.31,VWS V12.08,2013-07-28 03:58:00,